Preview of NWS' New Version of Forecast
This preview is not operational and should not be used for support decisions.

Regional Weather Roundup (RWR)

Issued by National Weather Service (NWS)

                            
000
ASPQ40 PGUM 260310
RWRPQ 
WEATHER ROUNDUP FOR THE MARIANAS AND MICRONESIA
NATIONAL WEATHER SERVICE TIYAN GU
100 PM CHST WED JUN 26 2019

GUZ001>004-260400-
MARIANA ISLANDS-
  
CITY           SKY/WX    TMP DP  RH WIND       PRES   REMARKS
GUAM AIRPORT   SUNNY     90  73  58 E14       29.86F HX  98           
ANDERSEN AFB   CLOUDY    88  75  66 E14       29.87F HX  97           
ROTA AIRPORT   MOSUNNY   86  72  62 E16       29.86F HX  92           
TINIAN AP      PTSUNNY   90  73  58 E9        29.85F HX  98           
SAIPAN AP      MOSUNNY   90  75  62 E12G18    29.86F HX 100           

$$

PMZ161-260400-
REPUBLIC OF PALAU-
  
CITY           SKY/WX    TMP DP  RH WIND       PRES   REMARKS
KOROR AP       CLOUDY    77  75  94 CALM      29.80F                  
KOROR WSO      NOT AVBL                                               

$$

PMZ171>174-260400-
FEDERATED STATES OF MICRONESIA-
  
CITY           SKY/WX    TMP DP  RH WIND       PRES   REMARKS
YAP AIRPORT    CLOUDY    86  79  79 E9        29.79F HX  99           
CHUUK AP       CLOUDY    90  79  70 SE7       29.80F HX 105           
POHNPEI AP     CLOUDY    88  77  70 NE10      29.79F HX 100           
POHNPEI WSO    PTSUNNY   88  81  79 NE3       29.81F HX 105           
KOSRAE AP      NOT AVBL                                               

$$

PMZ181-260400-
REPUBLIC OF THE MARSHALL ISLANDS-
  
CITY           SKY/WX    TMP DP  RH WIND       PRES   REMARKS
KWAJALEIN AP   MOSUNNY   84  79  84 E15       29.83S HX  96           
MAJURO AP      PTSUNNY   88  77  70 NE14      29.81F HX 100           
MAJURO WSO     CLOUDY    84  77  79 E7        29.81F HX  94           

$$